New River MCAS, NC

11:50 PM EDT on May 29, 2017 (GMT -0400)
New River Marine Corps Air Station

Weather History for KNCA - May, 2014

Change the Weather History Date:

Thursday, May 29, 2014

  Actual Average Record
Temperature  
Mean Temperature 76 °F -  
Max Temperature 82 °F 80 °F 89 °F (2007)
Min Temperature 70 °F 61 °F 48 °F (2001)
Cooling Degree Days 12    
Growing Degree Days 26 (Base 50)    
Moisture  
Dew Point 67 °F    
Average Humidity 75    
Maximum Humidity 91    
Minimum Humidity 58    
Precipitation  
Precipitation 0.00 in - - ()
Sea Level Pressure  
Sea Level Pressure 30.05 in    
Wind  
Wind Speed 7 mph (ENE)    
Max Wind Speed 10 mph    
Max Gust Speed 20 mph    
Visibility 10 miles    
Events Thunderstorm    
Averages and records for this station are not official NWS values.
T = Trace of Precipitation, MM = Missing Value Source: NWS Daily Summary

Daily Weather History Graph

Daily Weather History Graph

Search for Another Location

Airport or City:

Trip Planner

Search our weather history database for the weather conditions in past years. The results will help you decide how hot, cold, wet, or windy it might be!

Date:

Astronomy

May. 29, 2014 Rise Set
Actual Time 5:58 AM EDT 8:15 PM EDT
Civil Twilight 5:29 AM EDT 8:44 PM EDT
Nautical Twilight 4:54 AM EDT 9:20 PM EDT
Astronomical Twilight 4:16 AM EDT 9:58 PM EDT
Moon 6:48 AM EDT (5/29) 9:06 PM EDT (5/29)
Length of Visible Light 15h 14m
Length of Day
14h 17m
New Moon, 1% of the Moon is Illuminated
May 29
New Moon
Jun 5
First Quarter
Jun 13
Full
Jun 19
Last Quarter
Jun 27
New

Hourly Weather History & Observations

Time (EDT) Temp. Heat Index Dew Point Humidity Pressure Visibility Wind Dir Wind Speed Gust Speed Precip Events Conditions
12:56 AM 72.0 °F - 69.1 °F 91% 29.99 in 9.0 mi WSW 5.8 mph - N/A   Clear
1:56 AM 72.0 °F - 69.1 °F 91% 29.98 in 8.0 mi WSW 6.9 mph - N/A   Clear
2:56 AM 73.9 °F - 68.0 °F 82% 30.00 in 9.0 mi North 9.2 mph - N/A   Partly Cloudy
3:56 AM 72.0 °F - 66.9 °F 84% 29.99 in 9.0 mi North 3.5 mph - N/A   Clear
4:56 AM 71.1 °F - 66.0 °F 84% 30.00 in 10.0 mi North 4.6 mph - N/A   Clear
5:56 AM 71.1 °F - 64.9 °F 81% 30.00 in 10.0 mi ENE 5.8 mph - N/A   Clear
6:56 AM 72.0 °F - 66.0 °F 81% 30.01 in 10.0 mi East 3.5 mph - N/A   Clear
7:54 AM 73.4 °F - 66.2 °F 78% 30.03 in 10.0 mi ENE 5.8 mph - N/A   Mostly Cloudy
7:56 AM 73.0 °F - 66.9 °F 81% 30.04 in 10.0 mi NE 5.8 mph - N/A   Mostly Cloudy
8:56 AM 73.9 °F - 69.1 °F 85% 30.06 in 9.0 mi East 5.8 mph - N/A   Overcast
9:56 AM 75.9 °F - 68.0 °F 76% 30.07 in 10.0 mi NE 8.1 mph - N/A   Overcast
10:56 AM 79.0 °F - 66.9 °F 66% 30.08 in 10.0 mi Variable 3.5 mph - N/A   Overcast
11:31 AM 79.0 °F - 66.9 °F 66% 30.07 in 9.0 mi ENE 4.6 mph - N/A   Scattered Clouds
11:56 AM 80.1 °F 82.7 °F 68.0 °F 67% 30.08 in 10.0 mi Variable 3.5 mph - N/A   Partly Cloudy
12:56 PM 82.9 °F 85.4 °F 66.9 °F 58% 30.08 in 10.0 mi NE 4.6 mph - N/A   Clear
1:56 PM 82.0 °F 84.1 °F 66.0 °F 58% 30.08 in 10.0 mi NNE 10.4 mph 19.6 mph N/A   Mostly Cloudy
2:56 PM 82.0 °F 84.9 °F 68.0 °F 62% 30.06 in 10.0 mi ENE 8.1 mph - N/A   Mostly Cloudy
3:56 PM 81.0 °F 83.8 °F 68.0 °F 65% 30.03 in 10.0 mi East 9.2 mph - N/A   Overcast
4:28 PM 81.0 °F 84.1 °F 69.1 °F 67% 30.03 in 10.0 mi East 10.4 mph - N/A   Overcast
4:56 PM 80.1 °F 82.9 °F 69.1 °F 69% 30.04 in 10.0 mi East 9.2 mph - N/A   Overcast
5:06 PM 80.1 °F 82.7 °F 68.0 °F 67% 30.02 in 10.0 mi ENE 8.1 mph - N/A   Overcast
5:40 PM 79.0 °F - 68.0 °F 69% 30.02 in 10.0 mi ENE 10.4 mph - N/A   Overcast
5:52 PM 78.8 °F - 68.0 °F 69% 30.02 in 10.0 mi ENE 10.4 mph - N/A   Overcast
5:56 PM 79.0 °F - 68.0 °F 69% 30.04 in 10.0 mi ENE 8.1 mph - N/A   Overcast
6:00 PM 78.1 °F - 68.0 °F 71% 30.03 in 10.0 mi NE 9.2 mph - N/A Thunderstorm Thunderstorm
6:56 PM 78.1 °F - 66.9 °F 68% 30.06 in 10.0 mi East 6.9 mph - N/A Thunderstorm Thunderstorm
7:03 PM 77.0 °F - 66.9 °F 71% 30.05 in 10.0 mi East 6.9 mph - N/A   Overcast
7:56 PM 75.9 °F - 66.9 °F 74% 30.07 in 10.0 mi NE 9.2 mph - N/A   Overcast
8:56 PM 73.9 °F - 66.9 °F 79% 30.09 in 10.0 mi NNE 6.9 mph - N/A   Overcast
9:47 PM 73.0 °F - 66.9 °F 81% 30.07 in 10.0 mi ENE 9.2 mph - 0.00 in   Scattered Clouds
9:56 PM 73.0 °F - 66.9 °F 81% 30.08 in 10.0 mi East 9.2 mph - 0.00 in   Scattered Clouds
10:19 PM 72.0 °F - 66.9 °F 84% 30.08 in 10.0 mi East 9.2 mph - N/A   Mostly Cloudy
10:56 PM 72.0 °F - 66.0 °F 81% 30.10 in 10.0 mi East 8.1 mph - N/A   Overcast
11:03 PM 72.0 °F - 66.9 °F 84% 30.09 in 10.0 mi East 8.1 mph - N/A   Overcast
11:56 PM 70.0 °F - 66.0 °F 87% 30.10 in 10.0 mi East 9.2 mph - N/A   Mostly Cloudy